Terminal Aerodrome Forecast
Issued by NWS Corpus Christi, TX

Home | Current Version | Previous Version | Text Only | Print | Product List | Glossary On
Versions: 1 2 3 4 5 6 7 8 9 10 11 12
000
FTUS44 KCRP 211128
TAFCRP
TAF
KCRP 211128Z 2112/2212 VRB03KT P6SM SCT020
     FM211500 16010G15KT P6SM SCT030
     FM211900 12015G25KT P6SM FEW040
     FM220200 15014KT P6SM SCT025 BKN200
     FM220900 15005KT P6SM BKN025=

USA.gov is the U.S. government's official web portal to all federal, state and local government web resources and services.